[[{"header":{"parameterUnit":"m.s-1","parameterCategory":1,"la1":30.2991,"la2":30.254,"lo1":-89.0895,"lo2":-89.0444,"dy":0.0017,"dx":0.0017,"nx":28,"ny":28,"refTime":"2024-07-29T21:00:00:Z","depth":0,"parameterNumber":2,"parameterNumberName":"U-component_of_WINDS"},"data":[0,0,0,0,0,0,0,0,0,0,0,0,0,0,0,0,0,0,0,0,0,0,0,0,0,0,0,0,0,0,0,0,0,0,0,0,0,0,0,0,0,0,0,0,0,0,0,0,0,0,0,0,0,0,0,0,0,0,2.8853,2.8854,0,2.8971,2.8972,2.8974,2.895,2.8948,2.8946,2.8944,2.9069,2.9074,2.908,0,0,0,0,0,0,0,0,0,0,0,0,0,2.8609,2.8613,2.8852,2.8854,2.8855,2.8971,2.8972,2.8974,2.8951,2.8948,2.8945,2.8943,2.9067,2.9074,2.908,0,0,0,0,0,0,0,0,0,0,0,0,0,2.872,2.8615,2.8852,2.8857,2.8859,2.8971,2.8973,2.8975,2.8951,2.8948,2.8945,2.8942,2.9065,2.9073,2.9081,2.9196,0,0,2.9106,2.9109,0,0,0,0,0,0,0,0,2.8713,2.8729,2.8855,2.8857,2.8859,2.8942,2.8932,2.9049,2.8952,2.8916,2.8944,2.894,2.903,2.9041,2.907,2.9202,2.9207,2.9106,2.9111,2.9115,2.9117,0,0,0,0,0,0,0,2.8706,2.8723,2.8899,2.8857,2.886,2.8855,2.8867,2.8954,2.899,2.8919,2.8918,2.8932,2.903,2.9063,2.9073,2.9209,2.9106,2.9113,2.9118,2.9121,2.9439,2.9442,0,0,0,0,0,0,2.8696,2.8717,2.8896,2.8903,2.8777,2.8862,2.8876,2.8919,2.8989,2.8996,2.8935,2.893,2.905,2.9064,2.9077,2.9214,2.9115,2.9122,2.9127,2.9435,2.944,2.9444,0,0,0,0,0,0,2.8691,2.8712,2.8891,2.881,2.8832,2.887,2.8919,2.8923,2.8955,2.9001,2.9007,2.896,2.9048,2.9066,2.9166,2.9218,2.9126,2.9133,2.9431,2.9437,2.9442,2.949,0,0,0,0,0,0,2.8684,2.871,2.8753,2.8811,2.8837,2.8977,2.8922,2.8928,2.8968,2.8964,2.9027,2.9034,2.9047,2.9154,2.9174,2.9228,2.9139,2.9427,2.9434,2.944,2.9484,2.9497,2.9508,0,0,0,0,0,2.8675,2.8764,2.8756,2.8777,2.8891,2.898,2.8994,2.9007,2.8973,2.9017,2.9046,2.9032,2.921,2.9164,2.9187,2.9244,2.9423,2.9432,2.944,2.9479,2.9494,2.9507,0,0,0,0,0,0,2.8713,2.8771,2.8763,2.8873,2.8921,2.8975,2.9031,2.9023,2.9083,2.9077,2.9091,2.9105,2.9206,2.9236,2.9184,2.9358,2.9312,2.9325,2.9334,2.9349,2.9361,2.9351,2.9146,0,0,0,0,0,2.8733,2.8799,2.8848,2.894,2.8964,2.8994,2.9033,2.9038,2.9089,2.911,2.9147,2.9198,2.9265,2.9309,2.9374,2.9489,2.9502,2.9539,2.9551,2.956,2.9571,2.9632,2.9649,2.947,2.947,2.947,0,0,2.8777,2.8818,2.8859,2.8948,2.8986,2.9054,2.9011,2.9086,2.9137,2.9122,2.9217,2.9246,2.9305,2.9412,2.9461,2.9439,2.9623,2.9571,2.9578,2.9583,2.9642,2.9659,2.9674,2.9476,2.9475,2.9474,0,0,2.8892,2.893,2.9009,2.9048,2.9106,2.9125,2.9144,2.92,2.9218,2.9314,2.9303,2.9365,2.9482,2.9523,2.9559,2.9689,2.9678,2.971,2.977,2.983,2.9844,2.9856,2.99,2.9916,2.9721,2.9721,2.9721,0,2.8939,2.904,2.9052,2.9127,2.9166,2.9155,2.9235,2.9273,2.935,2.9378,2.9353,2.9497,2.9536,2.9651,2.9683,2.9713,2.9735,2.9702,2.9841,2.9853,2.9865,2.9907,2.9924,2.9724,2.9724,2.9723,2.9723,0,2.9095,2.9166,2.9224,2.9295,2.9342,2.942,2.9443,2.9489,2.9491,2.9512,2.961,2.9656,2.9729,2.9757,2.9761,2.9874,2.9858,2.9837,2.9791,2.9885,2.9925,2.9942,2.9729,2.9728,2.9727,2.9726,0,0,2.9235,2.9312,2.9333,2.9364,2.9428,2.9483,2.9561,2.963,2.9668,2.9723,2.9787,2.9885,2.9866,2.9907,2.9915,2.9967,3.0065,2.9939,2.9941,2.9959,3.019,3.0204,3.0222,3.0059,3.0062,3.0064,3.0184,0,2.9353,2.9487,2.95,2.9621,2.9686,2.9676,2.9744,2.979,2.9813,2.9872,2.9898,2.9966,2.9936,2.9961,3.0013,3.0042,3.0111,3.0034,3.0118,3.0121,3.0101,3.0243,3.0258,3.0369,3.02,3.0203,3.0205,0,2.9508,2.9564,2.9691,2.9744,2.9772,2.9832,2.9896,2.9953,3.0006,3.0019,3.0064,3.0065,3.0145,3.0098,3.0208,3.0155,3.0191,3.021,3.0215,3.0221,3.0167,3.0251,3.0405,3.0421,3.023,3.0228,3.0226,0,2.9594,2.9702,2.9791,2.9819,2.9884,2.9926,2.9956,3.0005,3.0046,3.0103,3.0129,3.0196,3.0232,3.0284,3.0302,3.0266,3.0411,3.0365,3.0423,3.0423,3.0452,3.0449,3.0611,3.048,3.0479,3.0479,3.0479,0,2.9723,2.98,2.983,2.9885,2.9972,2.9986,3.0072,3.0099,3.0143,3.0203,3.0201,3.0258,3.028,3.0341,3.0356,3.0444,3.0461,3.0473,3.0476,3.0472,3.047,3.0494,3.0485,3.0484,3.0483,3.0482,3.0481,0,2.9832,2.9855,2.9952,3.0005,3.002,3.0082,3.0127,3.018,3.0203,3.0279,3.0298,3.0333,3.0404,3.0428,3.0515,3.0526,3.0627,3.0625,3.0608,3.0608,3.0663,3.0657,3.0844,3.0868,3.0723,3.0724,3.0726,0,2.9911,2.997,3.0029,3.0069,3.0099,3.0163,3.0204,3.0222,3.0265,3.0329,3.0374,3.0444,3.0501,3.0615,3.0649,3.0715,3.0713,3.0774,3.0723,3.0716,3.0711,3.0705,3.0711,3.0782,3.0784,3.0785,3.0786,0,3.0048,3.0057,3.0116,3.0179,3.0228,3.0279,3.0328,3.0361,3.0385,3.0434,3.0506,3.055,3.0638,3.0707,3.0774,3.0805,3.08,3.0802,3.0819,3.0814,3.0801,3.0806,3.0631,3.0797,3.0796,3.0795,3.0795,3.0794,3.0143,3.0194,3.0243,3.0309,3.0348,3.0394,3.0445,3.0474,3.0534,3.0605,3.0613,3.069,3.0741,3.083,3.0865,3.0925,3.0908,3.0933,3.0938,3.0943,3.0946,3.0793,3.0938,3.0938,3.0938,3.0938,3.0937,0,3.0278,3.0309,3.0369,3.0437,3.0489,3.0479,3.0533,3.0577,3.0644,3.0692,3.0747,3.0829,3.0897,3.0936,3.1003,3.1044,3.1043,3.1061,3.1057,3.1064,3.0959,3.0937,3.1061,3.1061,3.1061,3.1061,3.1061,3.1061,3.0353,3.0439,3.0454,3.0558,3.059,3.0664,3.0695,3.0738,3.0775,3.0867,3.0922,3.0947,3.0991,3.1062,3.1123,3.1133,3.1157,3.1176,3.1184,3.1084,3.1072,3.1059,3.1038,3.1182,3.1182,3.1283,3.1284,3.1285]},{"header":{"parameterUnit":"m.s-1","parameterCategory":1,"la1":30.2991,"la2":30.254,"lo1":-89.0895,"lo2":-89.0444,"dy":0.0017,"dx":0.0017,"nx":28,"ny":28,"refTime":"2024-07-29T21:00:00:Z","depth":0,"parameterNumber":3,"parameterNumberName":"V-component_of_WINDS"},"data":[0,0,0,0,0,0,0,0,0,0,0,0,0,0,0,0,0,0,0,0,0,0,0,0,0,0,0,0,0,0,0,0,0,0,0,0,0,0,0,0,0,0,0,0,0,0,0,0,0,0,0,0,0,0,0,0,0,0,4.3728,4.3729,0,4.3833,4.3834,4.3835,4.3843,4.3842,4.3841,4.384,4.3939,4.3942,4.3946,0,0,0,0,0,0,0,0,0,0,0,0,0,4.3524,4.3528,4.3728,4.3729,4.3731,4.3833,4.3834,4.3836,4.3843,4.3842,4.3841,4.3839,4.3937,4.3942,4.3946,0,0,0,0,0,0,0,0,0,0,0,0,0,4.3619,4.3529,4.3728,4.3747,4.375,4.3833,4.3834,4.3836,4.3844,4.3842,4.384,4.3839,4.3936,4.3941,4.3947,4.4015,0,0,4.3964,4.3966,0,0,0,0,0,0,0,0,4.3613,4.3626,4.3743,4.3746,4.3749,4.3823,4.3799,4.3896,4.3844,4.3808,4.384,4.3838,4.3901,4.3909,4.3932,4.4019,4.4024,4.3964,4.3967,4.397,4.3971,0,0,0,0,0,0,0,4.3607,4.3622,4.3769,4.3744,4.3748,4.3747,4.3759,4.3817,4.3862,4.3811,4.3812,4.3824,4.3902,4.3927,4.3935,4.4025,4.3964,4.3969,4.3972,4.3974,4.417,4.4171,0,0,0,0,0,0,4.3598,4.3616,4.3766,4.3772,4.3676,4.3752,4.3765,4.3801,4.3862,4.387,4.3826,4.3824,4.3919,4.3928,4.3938,4.402,4.397,4.3975,4.3978,4.4168,4.417,4.4172,0,0,0,0,0,0,4.3594,4.3611,4.3762,4.3695,4.3714,4.3757,4.3798,4.3804,4.3829,4.3873,4.388,4.3843,4.3918,4.3931,4.3996,4.4024,4.3977,4.3983,4.4166,4.4168,4.4171,4.4185,0,0,0,0,0,0,4.3588,4.361,4.3639,4.3695,4.3717,4.382,4.38,4.3807,4.384,4.3839,4.3892,4.3899,4.3917,4.3987,4.4001,4.403,4.3987,4.4163,4.4167,4.417,4.4182,4.4188,4.4193,0,0,0,0,0,4.358,4.3637,4.364,4.3658,4.3755,4.3822,4.3834,4.3857,4.3842,4.3869,4.3897,4.3897,4.4019,4.3994,4.401,4.4041,4.4161,4.4166,4.417,4.418,4.4187,4.4193,0,0,0,0,0,0,4.358,4.3645,4.3649,4.3726,4.3769,4.3823,4.3859,4.3864,4.3909,4.3906,4.393,4.3942,4.4005,4.403,4.4001,4.4108,4.4088,4.4095,4.409,4.4097,4.4103,4.4095,4.3991,0,0,0,0,0,4.3589,4.3641,4.3694,4.3757,4.3779,4.3815,4.3845,4.3859,4.3903,4.392,4.3953,4.3993,4.4039,4.407,4.4116,4.4186,4.4196,4.4215,4.422,4.4224,4.423,4.4266,4.4274,4.4186,4.4186,4.4186,0,0,4.3608,4.365,4.3681,4.3758,4.3793,4.3843,4.383,4.3884,4.392,4.3927,4.3991,4.4016,4.4062,4.4129,4.4161,4.4151,4.4257,4.423,4.4233,4.4236,4.4271,4.428,4.4287,4.4189,4.4188,4.4188,0,0,4.3668,4.3706,4.3762,4.3797,4.3851,4.3874,4.3887,4.3941,4.3959,4.4024,4.4029,4.4071,4.4152,4.4184,4.421,4.428,4.4281,4.4294,4.4322,4.4357,4.4363,4.437,4.4392,4.44,4.43,4.43,4.43,0,4.3684,4.3763,4.3789,4.3843,4.3875,4.3886,4.3941,4.3972,4.4036,4.4057,4.4046,4.4147,4.4179,4.4253,4.427,4.4292,4.4305,4.4288,4.4361,4.4367,4.4374,4.4395,4.4404,4.4301,4.4301,4.4301,4.4301,0,4.3778,4.3833,4.3871,4.3935,4.3971,4.4025,4.4056,4.4089,4.4099,4.4123,4.4187,4.4225,4.4278,4.4296,4.4306,4.4371,4.4363,4.4357,4.4336,4.4383,4.4403,4.4412,4.4303,4.4303,4.4302,4.4302,0,0,4.3841,4.3919,4.3932,4.3961,4.402,4.406,4.4113,4.4167,4.4193,4.4237,4.4279,4.4347,4.4341,4.4371,4.4384,4.4415,4.4465,4.4404,4.4405,4.4412,4.4535,4.4538,4.4548,4.4466,4.4467,4.4469,4.453,0,4.3906,4.4004,4.4028,4.4109,4.4158,4.4168,4.4213,4.4252,4.4275,4.4317,4.4341,4.4388,4.4378,4.4395,4.4427,4.4452,4.4489,4.4448,4.4502,4.4504,4.4489,4.4559,4.4564,4.462,4.4539,4.454,4.4541,0,4.3995,4.4042,4.413,4.4181,4.4202,4.4243,4.4293,4.4334,4.4377,4.4391,4.4424,4.4434,4.4485,4.4463,4.4532,4.4504,4.4527,4.4542,4.4545,4.455,4.4524,4.4564,4.4639,4.4647,4.4555,4.4554,4.4553,0,4.4029,4.4115,4.4178,4.4202,4.4263,4.4291,4.4317,4.4359,4.4389,4.4432,4.4451,4.4498,4.4523,4.4558,4.4579,4.4561,4.4645,4.4625,4.4655,4.4655,4.4672,4.467,4.475,4.4689,4.4689,4.4689,4.4689,0,4.4098,4.415,4.4194,4.4232,4.429,4.4315,4.4371,4.4396,4.4433,4.4474,4.4485,4.4522,4.4548,4.4588,4.4604,4.4657,4.4669,4.4679,4.4682,4.4678,4.4676,4.4692,4.4688,4.4691,4.4691,4.469,4.469,0,4.4145,4.4177,4.4246,4.4299,4.4313,4.4353,4.4396,4.4432,4.4455,4.4507,4.452,4.4555,4.4602,4.4627,4.4685,4.4696,4.4755,4.4757,4.4741,4.4743,4.477,4.4767,4.4862,4.4875,4.4807,4.4808,4.4808,0,4.4187,4.4228,4.4285,4.4315,4.4343,4.439,4.4421,4.4447,4.4478,4.4529,4.4558,4.4607,4.4647,4.4722,4.475,4.4794,4.4796,4.4826,4.4802,4.4795,4.4794,4.479,4.4793,4.483,4.483,4.4831,4.4831,0,4.4256,4.4269,4.4316,4.4367,4.4405,4.4446,4.4486,4.4509,4.454,4.4575,4.4625,4.4656,4.4717,4.4763,4.4809,4.4832,4.4836,4.4839,4.4848,4.4842,4.4831,4.4835,4.4751,4.4836,4.4836,4.4835,4.4835,4.4835,4.43,4.4336,4.4382,4.4433,4.4466,4.4503,4.4539,4.4567,4.4611,4.4664,4.4675,4.4727,4.4766,4.4829,4.4853,4.4892,4.4885,4.4899,4.4902,4.4904,4.4905,4.4826,4.4901,4.49,4.49,4.49,4.49,0,4.4368,4.4398,4.4445,4.4502,4.4541,4.4544,4.4588,4.4619,4.4666,4.4704,4.4743,4.4799,4.4844,4.4877,4.4922,4.4946,4.4949,4.4957,4.4954,4.4959,4.4909,4.4896,4.4954,4.4954,4.4954,4.4954,4.4954,4.4954,4.4408,4.4468,4.4487,4.4563,4.4591,4.4645,4.467,4.4702,4.4733,4.4796,4.4834,4.4856,4.489,4.4938,4.4978,4.4986,4.5001,4.5009,4.5016,4.4969,4.4963,4.4957,4.4945,4.5012,4.5012,4.5063,4.5063,4.5064]}]]